Tracking 19176 objects as of 26-May-2018
HD Live streaming from Space Station
objects crossing your sky now

BREEZE-M DEB (TANK)

Track BREEZE-M DEB (TANK) now!
10-day predictions


NORAD ID: 33374
Int'l Code: 2008-044B
Perigee: 335.4 km
Apogee: 16,313.6 km
Inclination: 49.5 °
Period: 295.5 minutes
Semi major axis: 14695 km
RCS: 5.0119 m2 (large)
Launch date: September 19, 2008
Source: Commonwealth of Independent States (former USSR) (CIS)
Launch site: TYURATAM MISSILE AND SPACE COMPLEX (TTMTR)

Note: This is SATELLITE DEBRIS
aabbcc
Your satellite tracking list
Your tracking list is empty




NASA's NSSDC Master Catalog

Two Line Element Set (TLE):
1 33374U 08044B   18145.11675721  .00000126  00000-0  42877-4 0  9996
2 33374  49.4946  43.5927 5436450 289.9916  21.0273  4.87334934170669
Source of the keplerian elements: AFSPC